| time (UTC) | temp F | wind direction | speed MPH | gust MPH | rain 1hr in | rain 24hr in | rain mn in | humidity % | barometer mb |
| 20260502214403 | 55 | 233 | 3.0 | 5.0 | 0.00 | 0.00 | 0.00 | 77 | 1010.5 |
| 20260502213904 | 55 | 225 | 3.0 | 5.0 | 0.00 | 0.00 | 0.00 | 77 | 1010.6 |
| 20260502212904 | 55 | 202 | 2.0 | 3.0 | 0.00 | 0.00 | 0.00 | 76 | 1010.5 |
| 20260502211403 | 56 | 239 | 3.0 | 8.0 | 0.00 | 0.00 | 0.00 | 74 | 1010.8 |
| 20260502210904 | 56 | 243 | 7.0 | 10.0 | 0.00 | 0.00 | 0.00 | 74 | 1011.0 |
| 20260502210404 | 57 | 247 | 7.0 | 14.0 | 0.00 | 0.00 | 0.00 | 73 | 1011.0 |
| 20260502205903 | 58 | 257 | 9.0 | 12.0 | 0.00 | 0.00 | 0.00 | 74 | 1011.3 |
| 20260502205404 | 59 | 255 | 7.0 | 12.0 | 0.00 | 0.00 | 0.00 | 72 | 1010.9 |
| 20260502204904 | 60 | 264 | 9.0 | 17.0 | 0.00 | 0.00 | 0.00 | 70 | 1011.0 |
| 20260502204404 | 60 | 257 | 10.0 | 17.0 | 0.00 | 0.00 | 0.00 | 71 | 1011.0 |
| 20260502203904 | 60 | 248 | 14.0 | 18.0 | 0.00 | 0.00 | 0.00 | 71 | 1010.9 |
| 20260502203404 | 60 | 248 | 14.0 | 20.0 | 0.00 | 0.00 | 0.00 | 72 | 1010.9 |
| 20260502202904 | 60 | 245 | 12.0 | 15.0 | 0.00 | 0.00 | 0.00 | 72 | 1010.8 |
| 20260502202403 | 61 | 242 | 13.0 | 17.0 | 0.00 | 0.00 | 0.00 | 71 | 1010.7 |
| 20260502201902 | 60 | 240 | 11.0 | 14.0 | 0.00 | 0.00 | 0.00 | 70 | 1010.8 |
| 20260502201402 | 61 | 250 | 10.0 | 13.0 | 0.00 | 0.00 | 0.00 | 67 | 1010.8 |
| 20260502200903 | 60 | 255 | 8.0 | 12.0 | 0.00 | 0.00 | 0.00 | 66 | 1010.8 |
| 20260502200402 | 60 | 251 | 7.0 | 10.0 | 0.00 | 0.00 | 0.00 | 64 | 1010.8 |
| 20260502195903 | 61 | 243 | 8.0 | 10.0 | 0.00 | 0.00 | 0.00 | 63 | 1010.6 |
| 20260502195402 | 61 | 241 | 9.0 | 12.0 | 0.00 | 0.00 | 0.00 | 63 | 1010.6 |
| 20260502194403 | 61 | 237 | 8.0 | 12.0 | 0.00 | 0.00 | 0.00 | 62 | 1010.6 |
| 20260502193902 | 60 | 237 | 8.0 | 12.0 | 0.00 | 0.00 | 0.00 | 62 | 1010.6 |
| 20260502193402 | 60 | 247 | 7.0 | 10.0 | 0.00 | 0.00 | 0.00 | 62 | 1010.7 |
| 20260502192903 | 61 | 246 | 8.0 | 12.0 | 0.00 | 0.00 | 0.00 | 61 | 1010.7 |
| 20260502192402 | 61 | 251 | 7.0 | 10.0 | 0.00 | 0.00 | 0.00 | 61 | 1010.7 |
| 20260502191902 | 61 | 248 | 8.0 | 10.0 | 0.00 | 0.00 | 0.00 | 61 | 1010.7 |
| 20260502190902 | 61 | 259 | 5.0 | 8.0 | 0.00 | 0.00 | 0.00 | 60 | 1010.6 |
| 20260502185903 | 62 | 249 | 7.0 | 12.0 | 0.00 | 0.00 | 0.00 | 58 | 1010.5 |
| 20260502185401 | 63 | 256 | 7.0 | 12.0 | 0.00 | 0.00 | 0.00 | 58 | 1010.5 |
| 20260502184902 | 63 | 249 | 9.0 | 12.0 | 0.00 | 0.00 | 0.00 | 57 | 1010.6 |
| 20260502184402 | 63 | 248 | 10.0 | 12.0 | 0.00 | 0.00 | 0.00 | 56 | 1010.5 |
| 20260502183902 | 64 | 253 | 10.0 | 14.0 | 0.00 | 0.00 | 0.00 | 56 | 1010.5 |
| 20260502183402 | 64 | 249 | 10.0 | 13.0 | 0.00 | 0.00 | 0.00 | 55 | 1010.5 |
| 20260502182903 | 64 | 250 | 9.0 | 13.0 | 0.00 | 0.00 | 0.00 | 55 | 1010.5 |
| 20260502181902 | 64 | 256 | 7.0 | 12.0 | 0.00 | 0.00 | 0.00 | 54 | 1010.6 |
| 20260502181402 | 65 | 255 | 5.0 | 13.0 | 0.00 | 0.00 | 0.00 | 53 | 1010.5 |
| 20260502180902 | 65 | 257 | 9.0 | 12.0 | 0.00 | 0.00 | 0.00 | 52 | 1010.5 |
| 20260502180402 | 66 | 246 | 10.0 | 16.0 | 0.00 | 0.00 | 0.00 | 50 | 1010.5 |
| 20260502170402 | 69 | 243 | 13.0 | 17.0 | 0.00 | 0.00 | 0.00 | 45 | 1010.6 |
| 20260502163402 | 70 | 249 | 17.0 | 20.0 | 0.00 | 0.00 | 0.00 | 43 | 1010.8 |
| 20260502162902 | 70 | 252 | 18.0 | 23.0 | 0.00 | 0.00 | 0.00 | 43 | 1010.9 |
| 20260502161902 | 70 | 239 | 15.0 | 23.0 | 0.00 | 0.00 | 0.00 | 42 | 1010.9 |
| 20260502161402 | 71 | 248 | 14.0 | 21.0 | 0.00 | 0.00 | 0.00 | 42 | 1011.0 |
| 20260502160902 | 71 | 241 | 18.0 | 23.0 | 0.00 | 0.00 | 0.00 | 41 | 1011.0 |
| 20260502160402 | 71 | 233 | 17.0 | 22.0 | 0.00 | 0.00 | 0.00 | 41 | 1011.1 |
| 20260502151902 | 71 | 244 | 16.0 | 23.0 | 0.00 | 0.00 | 0.00 | 38 | 1011.4 |
| 20260502150903 | 71 | 244 | 16.0 | 24.0 | 0.00 | 0.00 | 0.00 | 38 | 1011.5 |
| 20260502150402 | 72 | 237 | 17.0 | 24.0 | 0.00 | 0.00 | 0.00 | 37 | 1011.5 |
| 20260502130403 | 73 | 234 | 20.0 | 30.0 | 0.00 | 0.00 | 0.00 | 33 | 1013.0 |
| 20260502123402 | 74 | 237 | 22.0 | 28.0 | 0.00 | 0.00 | 0.00 | 34 | 1013.4 |
| 20260502122903 | 74 | 238 | 22.0 | 28.0 | 0.00 | 0.00 | 0.00 | 34 | 1013.4 |
| 20260502122403 | 74 | 234 | 22.0 | 29.0 | 0.00 | 0.00 | 0.00 | 36 | 1013.5 |
| 20260502121903 | 74 | 237 | 22.0 | 30.0 | 0.00 | 0.00 | 0.00 | 35 | 1013.6 |
| 20260502121402 | 74 | 225 | 22.0 | 28.0 | 0.00 | 0.00 | 0.00 | 35 | 1013.6 |
| 20260502120902 | 74 | 239 | 21.0 | 29.0 | 0.00 | 0.00 | 0.00 | 36 | 1013.7 |
| 20260502120403 | 74 | 226 | 23.0 | 31.0 | 0.00 | 0.00 | 0.00 | 35 | 1013.7 |
| 20260502115903 | 74 | 223 | 21.0 | 26.0 | 0.00 | 0.00 | 0.00 | 36 | 1013.8 |
| 20260502115402 | 73 | 227 | 20.0 | 26.0 | 0.00 | 0.00 | 0.00 | 36 | 1013.8 |
| 20260502114902 | 73 | 217 | 25.0 | 32.0 | 0.00 | 0.00 | 0.00 | 35 | 1013.9 |
| 20260502114402 | 73 | 225 | 23.0 | 31.0 | 0.00 | 0.00 | 0.00 | 36 | 1013.9 |
| 20260502113903 | 73 | 244 | 21.0 | 26.0 | 0.00 | 0.00 | 0.00 | 36 | 1014.0 |
| 20260502113402 | 73 | 242 | 21.0 | 30.0 | 0.00 | 0.00 | 0.00 | 38 | 1014.0 |
| 20260502112403 | 73 | 237 | 21.0 | 26.0 | 0.00 | 0.00 | 0.00 | 38 | 1014.1 |
| 20260502111903 | 73 | 239 | 22.0 | 29.0 | 0.00 | 0.00 | 0.00 | 37 | 1014.1 |
| 20260502111404 | 72 | 235 | 21.0 | 33.0 | 0.00 | 0.00 | 0.00 | 38 | 1014.1 |
| 20260502110403 | 72 | 241 | 26.0 | 31.0 | 0.00 | 0.00 | 0.00 | 38 | 1014.2 |
| 20260502105903 | 72 | 233 | 24.0 | 30.0 | 0.00 | 0.00 | 0.00 | 37 | 1014.3 |
| 20260502105402 | 72 | 234 | 24.0 | 29.0 | 0.00 | 0.00 | 0.00 | 38 | 1014.2 |
| 20260502104903 | 72 | 238 | 25.0 | 32.0 | 0.00 | 0.00 | 0.00 | 38 | 1014.4 |
| 20260502104402 | 72 | 227 | 21.0 | 26.0 | 0.00 | 0.00 | 0.00 | 40 | 1014.5 |
| 20260502103902 | 72 | 229 | 21.0 | 26.0 | 0.00 | 0.00 | 0.00 | 40 | 1014.5 |
| 20260502103403 | 72 | 212 | 18.0 | 25.0 | 0.00 | 0.00 | 0.00 | 41 | 1014.5 |
| 20260502102902 | 71 | 230 | 20.0 | 26.0 | 0.00 | 0.00 | 0.00 | 42 | 1014.7 |
| 20260502101903 | 71 | 243 | 22.0 | 28.0 | 0.00 | 0.00 | 0.00 | 43 | 1014.7 |
| 20260502100902 | 70 | 219 | 23.0 | 28.0 | 0.00 | 0.00 | 0.00 | 42 | 1014.9 |
| 20260502100402 | 71 | 226 | 18.0 | 26.0 | 0.00 | 0.00 | 0.00 | 43 | 1015.0 |
| 20260502091402 | 68 | 218 | 14.0 | 21.0 | 0.00 | 0.00 | 0.00 | 47 | 1015.2 |
| 20260502090902 | 68 | 214 | 16.0 | 20.0 | 0.00 | 0.00 | 0.00 | 46 | 1015.2 |
| 20260502071402 | 61 | 211 | 10.0 | 15.0 | 0.00 | 0.00 | 0.00 | 59 | 1016.3 |
| 20260502070902 | 61 | 203 | 12.0 | 17.0 | 0.00 | 0.00 | 0.00 | 59 | 1016.3 |
| 20260502070402 | 60 | 214 | 12.0 | 17.0 | 0.00 | 0.00 | 0.00 | 59 | 1016.3 |
| 20260502065902 | 60 | 207 | 11.0 | 15.0 | 0.00 | 0.00 | 0.00 | 60 | 1016.4 |
| 20260502065403 | 60 | 213 | 13.0 | 15.0 | 0.00 | 0.00 | 0.00 | 60 | 1016.5 |
| 20260502064902 | 60 | 201 | 10.0 | 16.0 | 0.00 | 0.00 | 0.00 | 61 | 1016.6 |
| 20260502064403 | 59 | 215 | 10.0 | 16.0 | 0.00 | 0.00 | 0.00 | 62 | 1016.6 |
| 20260502063902 | 59 | 202 | 11.0 | 14.0 | 0.00 | 0.00 | 0.00 | 62 | 1016.6 |
| 20260502063403 | 58 | 207 | 10.0 | 14.0 | 0.00 | 0.00 | 0.00 | 64 | 1016.7 |
| 20260502062903 | 57 | 198 | 8.0 | 13.0 | 0.00 | 0.00 | 0.00 | 65 | 1016.7 |
| 20260502062402 | 57 | 192 | 11.0 | 14.0 | 0.00 | 0.00 | 0.00 | 65 | 1016.7 |
| 20260502061403 | 56 | 183 | 9.0 | 12.0 | 0.00 | 0.00 | 0.00 | 68 | 1016.8 |
| 20260502060902 | 55 | 181 | 9.0 | 13.0 | 0.00 | 0.00 | 0.00 | 69 | 1016.8 |
| 20260502060402 | 55 | 186 | 8.0 | 12.0 | 0.00 | 0.00 | 0.00 | 70 | 1016.9 |
| 20260502055902 | 54 | 179 | 8.0 | 10.0 | 0.00 | 0.00 | 0.00 | 71 | 1016.9 |
| 20260502055403 | 54 | 167 | 8.0 | 12.0 | 0.00 | 0.00 | 0.00 | 71 | 1017.0 |
| 20260502054903 | 53 | 182 | 9.0 | 14.0 | 0.00 | 0.00 | 0.00 | 71 | 1017.1 |
| 20260502054402 | 53 | 174 | 9.0 | 14.0 | 0.00 | 0.00 | 0.00 | 72 | 1017.2 |
| 20260502053902 | 52 | 178 | 9.0 | 14.0 | 0.00 | 0.00 | 0.00 | 72 | 1017.2 |
| 20260502053405 | 52 | 176 | 9.0 | 15.0 | 0.00 | 0.00 | 0.00 | 74 | 1017.3 |
| 20260502052903 | 52 | 168 | 8.0 | 12.0 | 0.00 | 0.00 | 0.00 | 74 | 1017.2 |
| 20260502052403 | 51 | 165 | 8.0 | 12.0 | 0.00 | 0.00 | 0.00 | 75 | 1017.3 |
| 20260502051902 | 51 | 167 | 9.0 | 13.0 | 0.00 | 0.00 | 0.00 | 75 | 1017.3 |
| 20260502051403 | 50 | 172 | 10.0 | 14.0 | 0.00 | 0.00 | 0.00 | 75 | 1017.4 |
| 20260502050903 | 50 | 171 | 9.0 | 14.0 | 0.00 | 0.00 | 0.00 | 76 | 1017.5 |
| 20260502050403 | 50 | 176 | 10.0 | 14.0 | 0.00 | 0.00 | 0.00 | 76 | 1017.6 |
| 20260502045903 | 49 | 171 | 9.0 | 12.0 | 0.00 | 0.00 | 0.00 | 76 | 1017.6 |
| 20260502045402 | 49 | 179 | 8.0 | 12.0 | 0.00 | 0.00 | 0.00 | 77 | 1017.7 |
| 20260502044402 | 49 | 180 | 6.0 | 8.0 | 0.00 | 0.00 | 0.00 | 78 | 1017.9 |
| 20260502043903 | 48 | 178 | 6.0 | 10.0 | 0.00 | 0.00 | 0.00 | 78 | 1017.9 |
| 20260502043402 | 48 | 182 | 6.0 | 8.0 | 0.00 | 0.00 | 0.00 | 78 | 1018.0 |
| 20260502042404 | 48 | 178 | 6.0 | 9.0 | 0.00 | 0.00 | 0.00 | 79 | 1018.0 |
| 20260502041903 | 47 | 183 | 6.0 | 8.0 | 0.00 | 0.00 | 0.00 | 79 | 1018.1 |
| 20260502041403 | 47 | 177 | 5.0 | 8.0 | 0.00 | 0.00 | 0.00 | 80 | 1018.2 |
| 20260502040903 | 47 | 181 | 4.0 | 6.0 | 0.00 | 0.00 | 0.00 | 80 | 1018.2 |
| 20260502040403 | 47 | 182 | 5.0 | 8.0 | 0.00 | 0.00 | 0.00 | 80 | 1018.2 |
| 20260502035902 | 46 | 179 | 4.0 | 7.0 | 0.00 | 0.00 | 0.00 | 80 | 1018.3 |
| 20260502035402 | 46 | 177 | 5.0 | 7.0 | 0.00 | 0.00 | 0.00 | 80 | 1018.4 |
| 20260502034402 | 45 | 192 | 5.0 | 6.0 | 0.00 | 0.00 | 0.00 | 82 | 1018.5 |
| 20260502033903 | 45 | 196 | 5.0 | 6.0 | 0.00 | 0.00 | 0.00 | 82 | 1018.6 |
| 20260502033403 | 45 | 195 | 3.0 | 6.0 | 0.00 | 0.00 | 0.00 | 82 | 1018.7 |
| 20260502032903 | 45 | 198 | 5.0 | 6.0 | 0.00 | 0.00 | 0.00 | 83 | 1018.7 |
| 20260502032403 | 44 | 197 | 4.0 | 6.0 | 0.00 | 0.00 | 0.00 | 84 | 1018.8 |
| 20260502031903 | 44 | 191 | 5.0 | 7.0 | 0.00 | 0.00 | 0.00 | 84 | 1018.8 |
| 20260502031402 | 43 | 191 | 4.0 | 6.0 | 0.00 | 0.00 | 0.00 | 82 | 1018.9 |
| 20260502030903 | 43 | 205 | 3.0 | 3.0 | 0.00 | 0.00 | 0.00 | 82 | 1019.0 |
| 20260502030403 | 44 | 232 | 2.0 | 3.0 | 0.00 | 0.00 | 0.00 | 81 | 1019.0 |
| 20260502025903 | 44 | 235 | 2.0 | 3.0 | 0.00 | 0.00 | 0.00 | 81 | 1019.1 |
| 20260502025402 | 45 | 222 | 3.0 | 6.0 | 0.00 | 0.00 | 0.00 | 81 | 1019.0 |
| 20260502024903 | 45 | 212 | 3.0 | 6.0 | 0.00 | 0.00 | 0.00 | 82 | 1019.0 |
| 20260502024402 | 44 | 201 | 3.0 | 5.0 | 0.00 | 0.00 | 0.00 | 82 | 1019.1 |
| 20260502023902 | 44 | 231 | 3.0 | 3.0 | 0.00 | 0.00 | 0.00 | 81 | 1019.2 |
| 20260502022903 | 44 | 221 | 1.0 | 3.0 | 0.00 | 0.00 | 0.00 | 80 | 1019.3 |
| 20260502022403 | 44 | 218 | 1.0 | 2.0 | 0.00 | 0.00 | 0.00 | 80 | 1019.3 |
| 20260502021903 | 44 | 221 | 1.0 | 5.0 | 0.00 | 0.00 | 0.00 | 80 | 1019.4 |
| 20260502021402 | 44 | 208 | 2.0 | 3.0 | 0.00 | 0.00 | 0.00 | 80 | 1019.4 |
| 20260502020902 | 44 | 214 | 2.0 | 3.0 | 0.00 | 0.00 | 0.00 | 80 | 1019.5 |
| 20260502020403 | 44 | 201 | 2.0 | 3.0 | 0.00 | 0.00 | 0.00 | 80 | 1019.5 |
| 20260502015902 | 44 | 202 | 2.0 | 3.0 | 0.00 | 0.00 | 0.00 | 79 | 1019.6 |
| 20260502015403 | 44 | 225 | 2.0 | 3.0 | 0.00 | 0.00 | 0.00 | 79 | 1019.6 |
| 20260502014903 | 44 | 234 | 1.0 | 3.0 | 0.00 | 0.00 | 0.00 | 79 | 1019.8 |
| 20260502013903 | 45 | 214 | 3.0 | 6.0 | 0.00 | 0.00 | 0.00 | 79 | 1019.7 |
| 20260502012903 | 45 | 206 | 5.0 | 6.0 | 0.00 | 0.00 | 0.00 | 78 | 1019.8 |
| 20260502012403 | 45 | 210 | 5.0 | 6.0 | 0.00 | 0.00 | 0.00 | 77 | 1019.8 |
| 20260502011903 | 45 | 213 | 5.0 | 5.0 | 0.00 | 0.00 | 0.00 | 76 | 1019.9 |
| 20260502010903 | 46 | 242 | 4.0 | 5.0 | 0.00 | 0.00 | 0.00 | 76 | 1020.0 |
| 20260502010403 | 46 | 233 | 4.0 | 7.0 | 0.00 | 0.00 | 0.00 | 75 | 1020.0 |
| 20260502005903 | 46 | 224 | 5.0 | 8.0 | 0.00 | 0.00 | 0.00 | 75 | 1020.1 |
| 20260502005402 | 47 | 220 | 6.0 | 8.0 | 0.00 | 0.00 | 0.00 | 74 | 1020.1 |
| 20260502004903 | 47 | 218 | 7.0 | 10.0 | 0.00 | 0.00 | 0.00 | 74 | 1020.2 |
| 20260502003903 | 46 | 217 | 7.0 | 8.0 | 0.00 | 0.00 | 0.00 | 74 | 1020.3 |
| 20260502003404 | 46 | 214 | 7.0 | 9.0 | 0.00 | 0.00 | 0.00 | 74 | 1020.3 |
| 20260502002902 | 46 | 211 | 6.0 | 9.0 | 0.00 | 0.00 | 0.00 | 74 | 1020.4 |
| 20260502002403 | 46 | 215 | 6.0 | 8.0 | 0.00 | 0.00 | 0.00 | 73 | 1020.4 |
| 20260502001904 | 46 | 212 | 6.0 | 8.0 | 0.00 | 0.00 | 0.00 | 73 | 1020.4 |
| 20260502000903 | 47 | 206 | 5.0 | 7.0 | 0.00 | 0.00 | 0.00 | 72 | 1020.4 |
| 20260502000403 | 47 | 208 | 5.0 | 7.0 | 0.00 | 0.00 | 0.00 | 72 | 1020.5 |
| 20260501235403 | 47 | 206 | 4.0 | 5.0 | 0.00 | 0.00 | 0.00 | 72 | 1020.6 |
| 20260501234903 | 47 | 207 | 4.0 | 6.0 | 0.00 | 0.00 | 0.00 | 72 | 1020.7 |
| 20260501233403 | 47 | 197 | 3.0 | 5.0 | 0.00 | 0.00 | 0.00 | 72 | 1020.9 |
| 20260501232902 | 47 | 198 | 4.0 | 6.0 | 0.00 | 0.00 | 0.00 | 73 | 1020.9 |
| 20260501232403 | 46 | 207 | 5.0 | 5.0 | 0.00 | 0.00 | 0.00 | 73 | 1020.9 |
| 20260501231903 | 47 | 222 | 3.0 | 5.0 | 0.00 | 0.00 | 0.00 | 72 | 1021.0 |
| 20260501231402 | 47 | 223 | 3.0 | 6.0 | 0.00 | 0.00 | 0.00 | 71 | 1021.0 |
| 20260501230904 | 47 | 215 | 5.0 | 6.0 | 0.00 | 0.00 | 0.00 | 72 | 1021.0 |
| 20260501230403 | 47 | 211 | 5.0 | 6.0 | 0.00 | 0.00 | 0.00 | 72 | 1021.1 |
| 20260501225903 | 46 | 215 | 5.0 | 7.0 | 0.00 | 0.00 | 0.00 | 71 | 1021.2 |
| 20260501225403 | 47 | 218 | 4.0 | 5.0 | 0.00 | 0.00 | 0.00 | 70 | 1021.2 |
| 20260501224903 | 48 | 220 | 4.0 | 5.0 | 0.00 | 0.00 | 0.00 | 69 | 1021.3 |
| 20260501224403 | 48 | 214 | 3.0 | 5.0 | 0.00 | 0.00 | 0.00 | 69 | 1021.3 |
| 20260501223903 | 48 | 212 | 3.0 | 6.0 | 0.00 | 0.00 | 0.00 | 69 | 1021.4 |
| 20260501223403 | 48 | 215 | 4.0 | 6.0 | 0.00 | 0.00 | 0.00 | 69 | 1021.4 |
| 20260501222903 | 48 | 213 | 5.0 | 6.0 | 0.00 | 0.00 | 0.00 | 70 | 1021.4 |
| 20260501222404 | 48 | 220 | 5.0 | 6.0 | 0.00 | 0.00 | 0.00 | 69 | 1021.4 |
| 20260501221902 | 48 | 220 | 3.0 | 5.0 | 0.00 | 0.00 | 0.00 | 68 | 1021.4 |
| 20260501221402 | 48 | 217 | 3.0 | 5.0 | 0.00 | 0.00 | 0.00 | 68 | 1021.5 |
| 20260501220403 | 49 | 214 | 3.0 | 5.0 | 0.00 | 0.00 | 0.00 | 66 | 1021.5 |
| 20260501215903 | 49 | 213 | 3.0 | 3.0 | 0.00 | 0.00 | 0.00 | 66 | 1021.6 |
| 20260501215404 | 50 | 212 | 3.0 | 6.0 | 0.00 | 0.00 | 0.00 | 66 | 1021.6 |
| 20260501214903 | 49 | 204 | 5.0 | 7.0 | 0.00 | 0.00 | 0.00 | 68 | 1021.6 |